< < Back
Terminal Aerodrome Forecast


Current Version              Previous Versions:   1  2  3  4  5  6  7  8  9  

Terminal Aerodrome Forecast

066
FTUS42 KMLB 230500
TAFDAB
TAF
KDAB 230525Z 2306/2406 24004KT P6SM SCT250
      TEMPO 2309/2313 5SM BR BKN008
     FM231400 28006KT P6SM FEW020
     FM231800 05008KT P6SM SCT045=

Latest METAR

754
SAUS80 KWBC 240200 RRA
MTRDAB
METAR KDAB 240153Z 00000KT 10SM FEW055 21/17 A2993 RMK AO2 SLP136
T02060172


USA.gov is the U.S. government's official web portal to all federal, state and local government web resources and services.